Find Starlink 34408

NORAD ID: 64363 Int'l Des: 2025-126 Owner: SPXS Country: US Constellation: starlink operational
LEOCIRCULAR

当前视图

正在加载3D地球...

About Starlink 34408

Starlink 34408 (NORAD 64363) is a starlink constellation satellite (v2 mini) launched Jun 13, 2025 by SPXS of US. It operates in LEO, CIRCULAR orbit with a mass of 575.00 kg.

关于 Starlink 34408

正在加载描述...

即将过境

Passes for default location (London). Set your location on the main map for personalized predictions.

高度历史

Loading altitude history...

两行轨道根数

1 64363U 25126V 26161.20271978 .00004226 00000-0 36164-3 0 9997
2 64363 69.9998 161.0269 0003928 257.3194 102.7526 14.98338937 54548
Epoch: Jun 10, 2026 • Age: 7 hours

当前状态

高度 576.0 km
速度 7.58 km/s
星下点 29.39°N, 109.37°W
发射日期 Jun 13, 2025
运行时间 0.9 years
类型 internet

技术详情

分类 Payload
质量 575.00 kg
干质量 530.00 kg
总质量 575.00 kg
长度 0.30 m
直径 4.10 m
跨度 29.00 m
形状 Box + pan
制造商 SPXS
平台类型 Starlink V2MO
阶段状态 In Orbit
所有者/国家 SPXS/US

Most Searched